Location: Bouchavesnes-Bergen
(49.9859°N, 2.9203°E)
Time: 03:50:05
(UTC+00:00)

IDEFIX/ARIANE 42P - Pass Details

Date: 28 September 2022
Orbit: 784 x 803 km, 98.5° (Epoch: 06 December)

Event Time Altitude Azimuth Distance (km) Brightness Sun altitude
Rises 03:40:56 0° 5° (N) 3,329 6.2 -20.1°
Reaches altitude 10° 03:43:49 10° 349° (N) 2,394 5.2 -19.7°
Maximum altitude 03:47:35 20° 304° (WNW) 1,775 4.1 -19.1°
Enters shadow 03:47:50 20° 300° (WNW) 1,778 4.0 -19.1°
